This is the latest recevied weather packets stored in our database for station/object ED3YAB-7. If no packets are shown the sender has not sent any weather packets the latest 10 day(s).
| Time | Temp. | Humidity | Pressure | Rain* | Wind** | Luminosity | Snow |
|---|---|---|---|---|---|---|---|
| 1778083440 | 39.44° C | 12% | 1014.9 hPa | - | - | - | - |
| 1778082251 | 46.11° C | 8% | 1014.9 hPa | - | - | - | - |
| 1778082240 | 46.11° C | 8% | 1014.9 hPa | - | - | - | - |
| 1778081040 | 30.56° C | 16% | 1015 hPa | - | - | - | - |
| 1778079847 | 43.33° C | 9% | 1015.3 hPa | - | - | - | - |
| 1778079840 | 43.33° C | 9% | 1015.3 hPa | - | - | - | - |
| 1778078640 | 41.11° C | 9% | 1015.4 hPa | - | - | - | - |
| 1778077440 | 33.33° C | 14% | 1015.6 hPa | - | - | - | - |
| 1778076247 | 40.56° C | 11% | 1015.8 hPa | - | - | - | - |
| 1778076240 | 40.56° C | 11% | 1015.8 hPa | - | - | - | - |
| 1778075039 | 35.56° C | 13% | 1015.8 hPa | - | - | - | - |
| 1778073839 | 37.78° C | 13% | 1016.1 hPa | - | - | - | - |
| 1778072648 | 35° C | 14% | 1016.4 hPa | - | - | - | - |
| 1778072641 | 35° C | 14% | 1016.4 hPa | - | - | - | - |
| 1778071441 | 25.56° C | 23% | 1016.4 hPa | - | - | - | - |
| 1778070240 | 24.44° C | 25% | 1016.5 hPa | - | - | - | - |
| 1778069040 | 23.33° C | 28% | 1016.7 hPa | - | - | - | - |
| 1778067851 | 21.67° C | 30% | 1016.9 hPa | - | - | - | - |
| 1778067840 | 21.67° C | 30% | 1016.9 hPa | - | - | - | - |
| 1778066640 | 21.11° C | 30% | 1016.9 hPa | - | - | - | - |
| 1778065440 | 19.44° C | 33% | 1017.1 hPa | - | - | - | - |
| 1778064240 | 18.33° C | 35% | 1017.3 hPa | - | - | - | - |
| 1778063054 | 17.22° C | 37% | 1017.6 hPa | - | - | - | - |
| 1778063039 | 17.22° C | 37% | 1017.6 hPa | - | - | - | - |
| 1778061839 | 16.67° C | 37% | 1017.7 hPa | - | - | - | - |
* Rain since midnight (hover to see other rain measurements)
** Current wind speed in m/s (hover to see current wind gust speed)